Home > Weather > Reims > Past weeks

Flag for France Weather for the Past 2 Weeks in Reims, Champagne-Ardenne, France

Now
57 °F

Sunny.


Feels Like: 57 °F
Forecast: 43 / 59 °F
Wind: 5 mph from West

Location: Chalons-Vatry

Current Time: May 2, 2016 at 9:28:37 PM

Latest Report: May 2, 2016 at 9:00 PM


Visibility: 10 mi

Pressure: 30.15 "Hg

Humidity: 48%

Dew Point: 37 °F

Location of ReimsLocation

Historic Weather in Reims — Graph

°F

Reims Temperature Yesterday

Maximum temperature yesterday: 55 °F (at 4:00 PM)
Minimum temperature yesterday: 37 °F (at 6:00 AM)
Average temperature yesterday: 46 °F

High & Low Weather Summary for the Past Weeks

 TemperatureHumidityPressure
High70 °F (Apr 21, 4:00 PM)100% (Apr 22, 5:00 AM)30.33 "Hg (Apr 22, 5:00 AM)
Low30 °F (Apr 24, 5:00 AM)34% (Apr 20, 5:00 PM)29.68 "Hg (Apr 26, 2:00 AM)
Average47 °F73%30.06 "Hg
* Reported Apr 17 8:00 PM — May 2 8:00 PM, Reims, Weather by CustomWeather, © 2016

Note: Actual official high and low records may vary slightly from our data, if they occured in-between our weather recording intervals... More about our weather records

Advertising

Reims Weather History for the Previous 24 Hours

Scroll right to see more
 ConditionsComfort  
Time TempWeatherWind HumidityBarometerVisibility
8:00 PM
Mon, May 2
61 °FSunny.8 mph45%30.15 "Hg10 mi
7:30 PM63 °FSunny.9 mph42%30.15 "Hg10 mi
7:00 PM63 °FSunny.10 mph42%30.15 "Hg10 mi
6:30 PM63 °FSunny.8 mph45%30.15 "Hg10 mi
6:00 PM64 °FSunny.9 mph40%30.18 "Hg10 mi
5:30 PM64 °FSunny.12 mph46%30.18 "Hg10 mi
5:00 PM64 °FPassing clouds.8 mph46%30.18 "HgN/A
4:30 PM64 °FPassing clouds.7 mph43%30.18 "HgN/A
4:00 PM66 °FScattered clouds.8 mph43%30.18 "HgN/A
3:30 PM64 °FScattered clouds.6 mph46%30.21 "HgN/A
3:00 PM64 °FPassing clouds.6 mph49%30.21 "HgN/A
2:30 PM64 °FPassing clouds.6 mph49%30.21 "HgN/A
2:00 PM63 °FSunny.3 mph59%30.21 "Hg10 mi
1:30 PM63 °FPassing clouds.5 mph56%30.24 "HgN/A
1:00 PM61 °FPassing clouds.6 mph55%30.24 "HgN/A
12:30 PM59 °FPassing clouds.7 mph59%30.27 "HgN/A
12:00 PM57 °FPassing clouds.5 mph63%30.27 "HgN/A
11:30 AM57 °FPassing clouds.3 mph63%30.27 "HgN/A
11:00 AM54 °FSunny.3 mph67%30.27 "Hg10 mi
10:30 AM54 °FPassing clouds.5 mph67%30.27 "HgN/A
10:00 AM50 °FSunny.5 mph71%30.27 "Hg10 mi
9:30 AM48 °FPassing clouds.5 mph71%30.27 "HgN/A
9:00 AM46 °FSunny.6 mph71%30.27 "Hg10 mi
8:30 AM45 °FSunny.6 mph76%30.27 "Hg10 mi
7:00 AM39 °FClear.6 mph81%30.27 "Hg10 mi
6:30 AM39 °FClear.6 mph75%30.27 "Hg10 mi
6:00 AM37 °FClear.5 mph81%30.30 "Hg10 mi
5:30 AM39 °FClear.7 mph81%30.30 "Hg10 mi
5:00 AM37 °FClear.7 mph81%30.30 "Hg10 mi
4:30 AM39 °FClear.8 mph75%30.30 "Hg10 mi
4:00 AM41 °FClear.9 mph76%30.30 "Hg10 mi
3:30 AM41 °FClear.8 mph76%30.30 "Hg10 mi
3:00 AM41 °FClear.9 mph70%30.30 "Hg10 mi
2:30 AM43 °FClear.10 mph71%30.30 "Hg10 mi
2:00 AM43 °FClear.9 mph71%30.30 "Hg10 mi
1:30 AM41 °FClear.10 mph76%30.30 "Hg10 mi
1:00 AM41 °FClear.9 mph76%30.30 "Hg10 mi
12:30 AM43 °FClear.8 mph71%30.33 "Hg10 mi
12:00 AM43 °FClear.13 mph71%30.30 "Hg10 mi
11:30 PM
Sun, May 1
43 °FClear.10 mph71%30.33 "Hg10 mi
11:00 PM43 °FClear.10 mph76%30.33 "Hg10 mi
10:30 PM45 °FSunny.9 mph71%30.30 "Hg10 mi
10:00 PM46 °FSunny.10 mph66%30.30 "Hg10 mi
9:30 PM46 °FSunny.9 mph66%30.30 "Hg10 mi
9:00 PM50 °FSunny.12 mph58%30.30 "Hg10 mi
Weather by CustomWeather, © 2016

See weather overviewHow to use our weather pages